Location: CCZU
(31.6840°N, 119.9550°E)
Time: 03:05:37
(UTC+08:00)

Tiangong 2 - Pass Details

Date: 30 April 2019
Orbit: 379 x 387 km, 42.8° (Epoch: 21 May)

Event Time Altitude Azimuth Distance (km) Brightness Sun altitude
Exits shadow 03:46:15 10° 156° (SSE) 1,423 3.9 -18.3°
Reaches altitude 10° 03:46:31 10° 151° (SSE) 1,393 3.9 -18.3°
Maximum altitude 03:47:17 11° 137° (SE) 1,355 4.0 -18.1°
Drops below altitude 10° 03:48:04 10° 122° (ESE) 1,397 4.2 -18.0°
Sets 03:51:32 0° 82° (E) 2,257 6.2 -17.4°
